Location: Shenandoah County Park
(38.9356°N, 78.4524°W)
Time: 23:23:11
(UTC-05:00)

S-56A Canister/Altair - Visible Passes

Search period start: 09 December 2023 00:00
Search period end: 19 December 2023 00:00
Orbit: 640 x 2489 km, 38.8° (Epoch: 09 December)

Date Brightness Start Highest point End Pass type
(mag) Time Alt. Az. Time Alt. Az. Time Alt. Az.
12 Dec 11.4 06:30:20 10° SSE 06:32:51 11° SE 06:35:09 10° SE visible
13 Dec 11.5 05:58:18 10° SSE 05:59:33 10° SE 06:00:45 10° SE visible
15 Dec 10.4 06:49:19 10° SSW 06:57:13 30° SSE 07:02:55 10° E visible
16 Dec 10.6 06:15:43 10° SSW 06:23:53 28° SSE 06:29:51 10° E visible
17 Dec 10.7 05:42:09 10° SSW 05:50:30 26° SSE 05:56:43 10° E visible
18 Dec 10.8 05:08:36 10° SSW 05:17:04 24° SSE 05:23:29 10° E visible
